Grand Forks AFB, ND

2:08 PM CDT on September 26, 2017 (GMT -0500)
Grand Forks Air Force Base

Weather History for KRDR - August, 2013

Change the Weather History Date:

Monday, August 26, 2013

  Actual Average Record
Temperature  
Mean Temperature 75 °F -  
Max Temperature 88 °F 77 °F 90 °F (2007)
Min Temperature 62 °F 53 °F 43 °F (2015)
Cooling Degree Days 10    
Growing Degree Days 25 (Base 50)    
Moisture  
Dew Point 66 °F    
Average Humidity 88    
Maximum Humidity 100    
Minimum Humidity 52    
Precipitation  
Precipitation 0.00 in - - ()
Sea Level Pressure  
Sea Level Pressure 29.92 in    
Wind  
Wind Speed 2 mph (SSW)    
Max Wind Speed 10 mph    
Max Gust Speed -    
Visibility 8 miles    
Events Fog , Rain    
Averages and records for this station are not official NWS values.
T = Trace of Precipitation, MM = Missing Value Source: NWS Daily Summary

Daily Weather History Graph

Daily Weather History Graph

Search for Another Location

Airport or City:

Trip Planner

Search our weather history database for the weather conditions in past years. The results will help you decide how hot, cold, wet, or windy it might be!

Date:

Astronomy

Aug. 26, 2013 Rise Set
Actual Time 6:39 AM CDT 8:21 PM CDT
Civil Twilight 6:07 AM CDT 8:54 PM CDT
Nautical Twilight 5:26 AM CDT 9:34 PM CDT
Astronomical Twilight 4:43 AM CDT 10:17 PM CDT
Moon 11:01 PM CDT 1:13 PM CDT
Length of Visible Light 14h 47m
Length of Day
13h 41m
Waning Gibbous, 66% of the Moon is Illuminated
Aug 26
Waning Gibbous
Aug 28
Last Quarter
Sep 5
New
Sep 12
First Quarter
Sep 19
Full

Hourly Weather History & Observations

Time (CDT) Temp. Heat Index Dew Point Humidity Pressure Visibility Wind Dir Wind Speed Gust Speed Precip Events Conditions
12:48 AM 71.6 °F - 68.0 °F 88% 29.93 in 8.0 mi NW 2.3 mph - N/A   Clear
12:58 AM 71.6 °F - 68.4 °F 89% 29.93 in 10.0 mi NW 2.3 mph - N/A   Clear
1:58 AM 69.4 °F - 68.0 °F 95% 29.92 in 10.0 mi Calm Calm - N/A   Clear
2:08 AM 69.8 °F - 68.0 °F 94% 29.93 in 8.0 mi NNW 1.2 mph - N/A   Clear
2:28 AM 68.0 °F - 68.0 °F 100% 29.92 in 10.0 mi NNW 1.2 mph - N/A   Clear
2:58 AM 67.3 °F - 66.9 °F 99% 29.92 in 10.0 mi NNW 2.3 mph - N/A   Clear
3:23 AM 66.2 °F - 66.2 °F 100% 29.93 in 8.0 mi NW 3.5 mph - N/A   Clear
3:33 AM 66.2 °F - 66.2 °F 100% 29.92 in 10.0 mi North 4.6 mph - N/A   Clear
3:58 AM 65.5 °F - 65.5 °F 100% 29.92 in 10.0 mi Calm Calm - N/A   Clear
4:58 AM 64.9 °F - 64.9 °F 100% 29.92 in 10.0 mi North 2.3 mph - N/A   Clear
5:23 AM 62.6 °F - 62.6 °F 100% 29.93 in 9.0 mi NNW 2.3 mph - N/A   Clear
5:28 AM 64.4 °F - 64.4 °F 100% 29.93 in 9.0 mi North 2.3 mph - N/A   Clear
5:38 AM 64.4 °F - 64.4 °F 100% 29.93 in 9.0 mi NW 2.3 mph - N/A   Clear
5:48 AM 62.6 °F - 62.6 °F 100% 29.93 in 5.0 mi Calm Calm - N/A   Clear
5:53 AM 62.6 °F - 62.6 °F 100% 29.93 in 6.0 mi West 1.2 mph - N/A   Clear
5:58 AM 62.2 °F - 62.2 °F 100% 29.94 in 9.0 mi Calm Calm - N/A   Clear
6:03 AM 62.6 °F - 62.6 °F 100% 29.94 in 10.0 mi Calm Calm - N/A   Clear
6:18 AM 62.6 °F - 62.6 °F 100% 29.94 in 8.0 mi North 2.3 mph - N/A   Clear
6:28 AM 64.4 °F - 64.4 °F 100% 29.94 in 4.0 mi NNE 2.3 mph - N/A   Clear
6:33 AM 62.6 °F - 62.6 °F 100% 29.94 in 3.0 mi NE 1.2 mph - N/A   Clear
6:43 AM 62.6 °F - 62.6 °F 100% 29.94 in 1.8 mi Calm Calm - N/A   Clear
6:48 AM 62.6 °F - 62.6 °F 100% 29.94 in 1.0 mi Calm Calm - N/A   Clear
6:50 AM 62.6 °F - 62.6 °F 100% 29.93 in 5.0 mi Calm Calm - N/A   Clear
6:53 AM 62.6 °F - 62.6 °F 100% 29.94 in 1.5 mi Calm Calm - N/A   Clear
6:58 AM 62.4 °F - 62.4 °F 100% 29.94 in 4.0 mi Calm Calm - N/A   Clear
7:00 AM 62.6 °F - 62.6 °F 100% 29.94 in 5.0 mi Calm Calm - N/A   Clear
7:03 AM 62.6 °F - 62.6 °F 100% 29.95 in 0.5 mi Calm Calm - N/A Fog Fog
7:08 AM 62.6 °F - 62.6 °F 100% 29.94 in 0.8 mi Calm Calm - N/A   Clear
7:13 AM 62.6 °F - 62.6 °F 100% 29.94 in 3.0 mi Calm Calm - N/A   Clear
7:21 AM 62.6 °F - 62.6 °F 100% 29.94 in 4.0 mi Calm Calm - N/A   Clear
7:58 AM 66.0 °F - 66.0 °F 100% 29.96 in 10.0 mi North 4.6 mph - N/A   Clear
8:58 AM 73.9 °F - 68.9 °F 84% 29.96 in 10.0 mi Calm Calm - N/A   Clear
9:58 AM 80.2 °F 83.2 °F 69.4 °F 69% 29.94 in 10.0 mi Variable 3.5 mph - N/A   Clear
10:58 AM 86.5 °F 91.0 °F 69.8 °F 57% 29.93 in 10.0 mi SE 10.4 mph - N/A   Clear
11:58 AM 88.0 °F 91.8 °F 68.5 °F 52% 29.92 in 10.0 mi ESE 8.1 mph - N/A   Clear
12:58 PM 86.9 °F 90.3 °F 67.6 °F 53% 29.92 in 10.0 mi ESE 5.8 mph - N/A   Clear
1:45 PM 86.0 °F 89.4 °F 68.0 °F 55% 29.91 in 10.0 mi SSE 4.6 mph - N/A   Light Drizzle
1:55 PM 86.0 °F 90.4 °F 69.8 °F 58% 29.91 in 10.0 mi SE 4.6 mph - N/A   Scattered Clouds
1:58 PM 86.2 °F 90.4 °F 69.1 °F 57% 29.91 in 10.0 mi SE 3.5 mph - 0.00 in   Scattered Clouds
2:58 PM 86.5 °F 90.0 °F 68.4 °F 54% 29.91 in 10.0 mi SSE 4.6 mph - N/A   Partly Cloudy
3:58 PM 85.8 °F 90.4 °F 70.0 °F 59% 29.89 in 10.0 mi SE 5.8 mph - N/A   Scattered Clouds
4:48 PM 80.6 °F 83.2 °F 68.0 °F 65% 29.91 in 10.0 mi SW 6.9 mph - N/A Rain Light Rain
4:58 PM 80.1 °F 82.9 °F 69.1 °F 69% 29.92 in 10.0 mi SSW 6.9 mph - 0.00 in Rain Light Rain
5:32 PM 77.0 °F - 68.0 °F 74% 29.89 in 10.0 mi South 9.2 mph - N/A   Scattered Clouds
5:44 PM 77.0 °F - 66.2 °F 69% 29.89 in 10.0 mi South 4.6 mph - N/A   Light Drizzle
5:54 PM 77.0 °F - 68.0 °F 74% 29.89 in 10.0 mi SSE 3.5 mph - N/A   Partly Cloudy
5:58 PM 76.3 °F - 68.2 °F 76% 29.90 in 10.0 mi SSE 3.5 mph - 0.00 in   Partly Cloudy
6:58 PM 76.6 °F - 68.0 °F 75% 29.86 in 10.0 mi SSW 6.9 mph - N/A   Clear
7:58 PM 73.4 °F - 69.8 °F 88% 29.87 in 10.0 mi Calm Calm - N/A   Clear
8:58 PM 70.9 °F - 70.0 °F 97% 29.87 in 10.0 mi South 3.5 mph - N/A   Clear
9:58 PM 68.4 °F - 68.4 °F 100% 29.88 in 10.0 mi East 2.3 mph - N/A   Clear
10:58 PM 67.1 °F - 67.1 °F 100% 29.86 in 10.0 mi SSW 1.2 mph - N/A   Clear
11:38 PM 64.4 °F - 64.4 °F 100% 29.86 in 9.0 mi SW 3.5 mph - N/A   Clear
11:58 PM 63.1 °F - 63.1 °F 100% 29.86 in 7.0 mi SSW 2.3 mph - N/A   Clear